This is the latest recevied weather packets stored in our database for station/object AB4CZ-1. If no packets are shown the sender has not sent any weather packets the latest 10 day(s).
| Time | Temp. | Humidity | Pressure | Rain* | Wind** | Luminosity | Snow |
|---|---|---|---|---|---|---|---|
| 1777924899 | 26.11° C | 35% | 1015.4 hPa | 0 mm | - | - | - |
| 1777924592 | 26.11° C | 34% | 1015.4 hPa | 0 mm | - | - | - |
| 1777924292 | 26.11° C | 37% | 1015.6 hPa | 0 mm | - | - | - |
| 1777923992 | 26.11° C | 37% | 1015.7 hPa | 0 mm | - | - | - |
| 1777923692 | 26.67° C | 37% | 1015.6 hPa | 0 mm | - | - | - |
| 1777923118 | 25.56° C | 38% | 1015.8 hPa | 0 mm | - | - | - |
| 1777922796 | 25.56° C | 38% | 1015.8 hPa | 0 mm | - | - | - |
| 1777922589 | 26.11° C | 36% | 1015.9 hPa | 0 mm | - | - | - |
| 1777922492 | 26.11° C | 36% | 1015.9 hPa | 0 mm | - | - | - |
| 1777922196 | 26.11° C | 37% | 1016 hPa | 0 mm | - | - | - |
| 1777921959 | 26.11° C | 37% | 1016 hPa | 0 mm | - | - | - |
| 1777921892 | 26.11° C | 37% | 1016 hPa | 0 mm | - | - | - |
| 1777921306 | 26.11° C | 36% | 1016.2 hPa | 0 mm | - | - | - |
| 1777920692 | 26.11° C | 35% | 1016.3 hPa | 0 mm | - | - | - |
| 1777920092 | 26.11° C | 36% | 1016.4 hPa | 0 mm | - | - | - |
| 1777919492 | 26.11° C | 35% | 1016.5 hPa | 0 mm | - | - | - |
| 1777918892 | 26.67° C | 38% | 1016.7 hPa | 0 mm | - | - | - |
| 1777918592 | 26.67° C | 39% | 1016.7 hPa | 0 mm | - | - | - |
| 1777918345 | 26.11° C | 40% | 1016.8 hPa | 0 mm | - | - | - |
| 1777918293 | 26.11° C | 40% | 1016.8 hPa | 0 mm | - | - | - |
| 1777917692 | 26.67° C | 36% | 1016.8 hPa | 0 mm | - | - | - |
| 1777917429 | 26.67° C | 39% | 1016.9 hPa | 0 mm | - | - | - |
| 1777917393 | 26.67° C | 39% | 1016.9 hPa | 0 mm | - | - | - |
| 1777917092 | 26.11° C | 39% | 1017 hPa | 0 mm | - | - | - |
| 1777916197 | 26.11° C | 37% | 1017.2 hPa | 0 mm | - | - | - |
* Rain latest hour (hover to see other rain measurements)
** Current wind speed in m/s (hover to see current wind gust speed)